Portada
METAR-TAF:

METAR-TAF

Aeroports :

Weipa, Austràlia

latitud: 12-40-43S, longitud: 141-55-31E, altitud: 19 m

Observació

L'informe es va fer fa 40 minuts, a les 08:00 UTC
Vent 6 kt del Oest
Temperatura 29°C
Humitat 62%
Pressió 1009 hPa
Visibilitat 10 km o més
Cel ennuvolat a una alçada de 5400 ft
Cel ennuvolat a una alçada de 6500 ft

METAR: YBWP 120800Z AUTO 28006KT 9999 // BKN054 BKN065 29/21 Q1009

Hora: 18:40 (08:40 UTC)


TAF: manca

Observacions i pronòstics meteorològics de més de 4000 aeroports (METAR i TAF).

Les estacions disponibles són els punts grocs i vermells al mapa.

Posi el ratolí al punt desitjat per veure el nom de l'estació.

Feu clic per veure les observacions i els pronòstics meteorològics.

Per canviar el mapa: feu clic els botons verds amb una creu de color negre per apropar; al botó verd amb un guió per allunyar la imatge; o en les fletxes verdes per a mapes adjacents.


METAR-TAF: